Regional Weather Roundup
Issued by NWS

Home | Current Version | Previous Version | Graphics & Text | Print | Product List | Glossary On
Versions: 1 2 3 4 5 6 7 8 9 10 11 12 13 14 15 16 17 18 19 20 21 22 23 24 25 26 27 28 29 30 31 32 33 34 35 36 37 38 39 40 41 42 43 44 45 46 47 48 49 50
000
ASUS43 KLMK 250102
RWRKY
KENTUCKY REGIONAL WEATHER ROUNDUP
NATIONAL WEATHER SERVICE LOUISVILLE KY
900 PM EDT FRI OCT 24 2014

NOTE "FAIR" INDICATES FEW OR NO CLOUDS BELOW 12,000 FEET
WITH NO SIGNIFICANT WEATHER AND/OR OBSTRUCTIONS TO VISIBILITY.

KYZ001>023-026-027-061>063-070>075-250200-
WESTERN AND SOUTH CENTRAL KENTUCKY

CITY           SKY/WX    TMP DP  RH WIND       PRES   REMARKS
PADUCAH        CLEAR     51  49  92 CALM      30.05S
HENDERSON      CLOUDY   N/A N/A N/A CALM      30.05R
OWENSBORO      CLEAR     57  50  78 CALM      30.06S
HOPKINSVILLE   CLEAR     58  54  88 CALM      30.08R
BOWLING GREEN  CLEAR     55  46  71 CALM      30.08S
GLASGOW        CLEAR     52  46  78 CALM      30.08S
$$

KYZ024-025-028>034-038-045-046-053-250200-
NORTH CENTRAL KENTUCKY

CITY           SKY/WX    TMP DP  RH WIND       PRES   REMARKS
LOUISVILLE/SDF PTCLDY    58  47  66 CALM      30.05F
LOUISVILLE/LOU CLEAR     55  47  74 CALM      30.06S
FORT KNOX      CLEAR     53  47  79 CALM      30.05S
$$

KYZ035>037-039>044-047>052-055>060-089>105-250200-
NORTHEAST KENTUCKY

CITY           SKY/WX    TMP DP  RH WIND       PRES   REMARKS
LEXINGTON      PTCLDY    51  43  74 SE5       30.06F
COVINGTON      PTCLDY    55  40  56 W3        30.05R
FRANKFORT      PTCLDY    50  42  74 CALM      30.05F
$$

KYZ054-064>069-076>088-106>120-250200-
SOUTHEAST KENTUCKY

CITY           SKY/WX    TMP DP  RH WIND       PRES   REMARKS
JACKSON        CLEAR     56  41  57 CALM      30.07R
LONDON         CLEAR     52  43  71 CALM      30.07R
SOMERSET       CLEAR     50  45  81 CALM      30.10R
MIDDLESBORO    CLEAR     48  43  81 CALM      30.08S
MONTICELLO     CLEAR     44  40  86 CALM      30.10R FOG
$$




USA.gov is the U.S. government's official web portal to all federal, state and local government web resources and services.